Date,TemperatureHighF,TemperatureAvgF,TemperatureLowF,DewpointHighF,DewpointAvgF,DewpointLowF,HumidityHigh,HumidityAvg,HumidityLow,PressureMaxIn,PressureMinIn,WindSpeedMaxMPH,WindSpeedAvgMPH,GustSpeedMaxMPH,PrecipitationSumIn
2013-2-1,18.0,15.6,12.0,12.0,7.9,1.0,87,71,57,30.14,29.64,12,7,0,0.00
2013-2-2,17.0,13.0,11.0,9.0,3.9,0.0,82,66,58,30.14,29.96,9,5,0,0.00
2013-2-5,26.0,24.0,20.0,19.0,16.1,13.0,82,71,64,30.03,29.92,4,1,9,0.00
2013-2-6,27.0,22.3,14.0,23.0,15.6,8.0,87,76,58,30.46,29.94,8,3,16,0.00
2013-2-7,28.0,22.8,15.0,23.0,14.9,10.0,87,72,62,30.51,30.16,7,3,15,0.00
2013-2-8,34.0,28.0,18.0,31.0,24.1,16.0,94,86,69,30.17,29.84,7,2,14,0.03
2013-2-9,21.0,17.0,9.0,18.0,14.7,6.0,92,91,88,30.50,30.16,3,1,7,0.02
2013-2-10,33.0,19.2,5.0,28.0,15.6,2.0,92,86,79,30.50,30.06,5,2,11,0.11
2013-2-11,48.0,37.2,32.0,40.0,30.7,26.0,91,78,69,30.06,29.62,11,5,29,0.44
2013-2-12,34.0,31.6,30.0,30.0,26.6,23.0,94,82,70,30.03,29.76,8,4,20,0.02
2013-2-13,36.0,29.8,23.0,26.0,23.5,21.0,91,77,60,29.98,29.80,3,1,7,0.02
2013-2-14,39.0,31.2,23.0,33.0,26.5,21.0,94,84,62,29.98,29.85,5,2,10,0.08
2013-2-15,37.0,32.6,22.0,33.0,24.4,15.0,94,72,59,30.12,29.84,8,4,20,0.09
2013-2-16,30.0,23.1,19.0,19.0,16.6,12.0,89,76,51,30.13,29.99,3,1,8,0.00
2013-2-17,21.0,14.7,11.0,18.0,10.4,4.0,91,83,69,30.28,29.98,9,3,17,0.00
2013-2-18,29.0,19.0,9.0,17.0,11.3,5.0,89,73,55,30.38,30.00,5,2,11,0.09
2013-2-19,41.0,32.6,24.0,35.0,25.1,17.0,90,74,59,30.00,29.61,10,4,23,0.15
2013-2-20,25.0,21.1,18.0,19.0,14.2,11.0,84,75,60,30.14,29.81,9,5,22,0.01
2013-2-21,21.0,17.4,12.0,16.0,12.5,7.0,88,80,72,30.50,30.11,9,4,18,0.00
2013-2-22,33.0,26.4,20.0,28.0,21.7,15.0,91,82,72,30.48,30.09,10,4,16,0.00
2013-2-23,37.0,32.7,30.0,31.0,27.7,24.0,89,82,78,30.09,29.94,7,3,12,0.03
2013-2-24,33.0,30.0,29.0,27.0,24.8,23.0,92,81,71,30.12,29.92,5,2,12,0.01
2013-2-25,35.0,31.4,29.0,29.0,26.5,25.0,89,82,74,30.30,30.12,4,1,9,0.01
2013-2-26,43.0,33.8,25.0,32.0,27.0,23.0,95,78,56,30.30,29.89,11,4,23,0.27
2013-2-27,34.0,32.4,32.0,33.0,31.4,31.0,97,95,95,29.91,29.64,7,2,15,0.85